Time,TemperatureF,DewpointF,PressureIn,WindDirection,WindDirectionDegrees,WindSpeedMPH,WindSpeedGustMPH,Humidity,HourlyPrecipIn,Conditions,Clouds,dailyrainin,SoftwareType,DateUTC
2013-04-20 00:01:00,55.6,55.3,29.73,WSW,243,14.0,15.0,99,0.11,,---,0.01,VWS V14.01,2013-04-20 04:01:00,
2013-04-20 00:02:00,55.5,55.2,29.73,North,1,17.0,17.0,99,0.11,,---,0.01,VWS V14.01,2013-04-20 04:02:00,
2013-04-20 00:07:00,55.5,55.2,29.74,ESE,109,12.0,20.0,99,0.11,,---,0.01,VWS V14.01,2013-04-20 04:07:00,
2013-04-20 00:12:00,55.3,55.0,29.74,SW,218,14.0,20.0,99,0.11,,---,0.01,VWS V14.01,2013-04-20 04:12:00,
2013-04-20 00:17:00,55.1,54.8,29.73,West,280,13.0,20.0,99,0.11,,---,0.01,VWS V14.01,2013-04-20 04:17:00,
2013-04-20 00:22:00,55.1,54.8,29.73,NNW,339,5.0,20.0,99,0.12,,---,0.02,VWS V14.01,2013-04-20 04:22:00,
2013-04-20 00:27:00,55.3,55.0,29.73,South,174,9.0,20.0,99,0.13,,---,0.03,VWS V14.01,2013-04-20 04:27:00,
2013-04-20 00:32:00,55.5,55.2,29.73,SE,139,7.0,23.0,99,0.05,,---,0.03,VWS V14.01,2013-04-20 04:32:00,
2013-04-20 00:37:00,55.6,55.3,29.73,WSW,250,5.0,23.0,99,0.05,,---,0.03,VWS V14.01,2013-04-20 04:37:00,
2013-04-20 00:42:00,55.8,55.5,29.72,East,93,15.0,23.0,99,0.05,,---,0.03,VWS V14.01,2013-04-20 04:42:00,
2013-04-20 00:47:00,56.2,55.9,29.72,West,261,11.0,23.0,99,0.05,,---,0.03,VWS V14.01,2013-04-20 04:47:00,
2013-04-20 00:52:00,56.5,56.2,29.72,SSW,197,13.0,23.0,99,0.06,,---,0.04,VWS V14.01,2013-04-20 04:52:00,
2013-04-20 00:57:00,56.6,56.3,29.71,SSW,195,8.0,23.0,99,0.06,,---,0.04,VWS V14.01,2013-04-20 04:57:00,
2013-04-20 01:02:00,56.5,56.2,29.71,South,172,6.0,16.0,99,0.04,,---,0.04,VWS V14.01,2013-04-20 05:02:00,
2013-04-20 01:07:00,56.4,56.1,29.70,SE,127,8.0,17.0,99,0.04,,---,0.04,VWS V14.01,2013-04-20 05:07:00,
2013-04-20 01:12:00,56.4,56.1,29.70,NE,43,9.0,17.0,99,0.04,,---,0.04,VWS V14.01,2013-04-20 05:12:00,
2013-04-20 01:17:00,56.2,55.9,29.71,South,191,10.0,17.0,99,0.04,,---,0.04,VWS V14.01,2013-04-20 05:17:00,
2013-04-20 01:22:00,56.2,55.9,29.71,SE,131,10.0,19.0,99,0.04,,---,0.04,VWS V14.01,2013-04-20 05:22:00,
2013-04-20 01:27:00,56.1,55.8,29.70,NW,319,7.0,20.0,99,0.04,,---,0.04,VWS V14.01,2013-04-20 05:27:00,
2013-04-20 01:32:00,55.8,55.5,29.70,WNW,290,9.0,16.0,99,0.01,,---,0.04,VWS V14.01,2013-04-20 05:32:00,
2013-04-20 01:37:00,55.5,55.2,29.71,SSW,192,10.0,16.0,99,0.02,,---,0.05,VWS V14.01,2013-04-20 05:37:00,
2013-04-20 01:42:00,55.3,55.0,29.71,East,86,12.0,21.0,99,0.02,,---,0.05,VWS V14.01,2013-04-20 05:42:00,
2013-04-20 01:47:00,55.3,55.0,29.71,WSW,250,10.0,21.0,99,0.02,,---,0.05,VWS V14.01,2013-04-20 05:47:00,
2013-04-20 01:52:00,55.3,55.0,29.71,South,185,6.0,21.0,99,0.03,,---,0.06,VWS V14.01,2013-04-20 05:52:00,
2013-04-20 01:57:00,55.4,55.1,29.70,West,278,6.0,21.0,99,0.03,,---,0.06,VWS V14.01,2013-04-20 05:57:00,
2013-04-20 02:02:00,56.0,56.0,29.71,West,275,6.0,19.0,100,0.02,,---,0.06,VWS V14.01,2013-04-20 06:02:00,
2013-04-20 02:07:00,57.2,57.2,29.72,WSW,238,6.0,20.0,100,0.02,,---,0.06,VWS V14.01,2013-04-20 06:07:00,
2013-04-20 02:12:00,57.6,57.6,29.72,SW,235,12.0,20.0,100,0.02,,---,0.06,VWS V14.01,2013-04-20 06:12:00,
2013-04-20 02:17:00,57.5,57.5,29.72,West,277,14.0,20.0,100,0.02,,---,0.06,VWS V14.01,2013-04-20 06:17:00,
2013-04-20 02:22:00,55.7,55.4,29.73,NW,314,8.0,20.0,99,0.02,,---,0.06,VWS V14.01,2013-04-20 06:22:00,
2013-04-20 02:27:00,55.1,54.5,29.73,WNW,302,4.0,20.0,98,0.02,,---,0.06,VWS V14.01,2013-04-20 06:27:00,
2013-04-20 02:32:00,54.7,54.2,29.74,WSW,248,8.0,17.0,98,0.03,,---,0.07,VWS V14.01,2013-04-20 06:32:00,
2013-04-20 02:37:00,54.5,54.0,29.74,NW,304,5.0,17.0,98,0.03,,---,0.07,VWS V14.01,2013-04-20 06:37:00,
2013-04-20 02:42:00,54.4,53.8,29.74,NE,35,4.0,17.0,98,0.03,,---,0.07,VWS V14.01,2013-04-20 06:42:00,
2013-04-20 02:47:00,54.2,53.7,29.75,East,89,4.0,17.0,98,0.04,,---,0.08,VWS V14.01,2013-04-20 06:47:00,
2013-04-20 02:52:00,53.9,53.3,29.74,NW,320,10.0,17.0,98,0.05,,---,0.09,VWS V14.01,2013-04-20 06:52:00,
2013-04-20 02:57:00,53.3,52.2,29.74,WNW,282,11.0,20.0,96,0.05,,---,0.09,VWS V14.01,2013-04-20 06:57:00,
2013-04-20 03:02:00,52.4,51.0,29.73,West,281,8.0,16.0,95,0.04,,---,0.10,VWS V14.01,2013-04-20 07:02:00,
2013-04-20 03:07:00,52.1,51.0,29.74,WNW,300,8.0,18.0,96,0.05,,---,0.11,VWS V14.01,2013-04-20 07:07:00,
2013-04-20 03:12:00,51.8,50.7,29.75,NW,320,14.0,22.0,96,0.05,,---,0.11,VWS V14.01,2013-04-20 07:12:00,
2013-04-20 03:17:00,51.6,50.5,29.74,WNW,299,9.0,22.0,96,0.05,,---,0.11,VWS V14.01,2013-04-20 07:17:00,
2013-04-20 03:22:00,51.2,49.8,29.75,WNW,284,12.0,22.0,95,0.05,,---,0.11,VWS V14.01,2013-04-20 07:22:00,
2013-04-20 03:27:00,51.3,50.2,29.75,NW,309,7.0,22.0,96,0.05,,---,0.11,VWS V14.01,2013-04-20 07:27:00,
2013-04-20 03:32:00,51.2,50.1,29.76,WSW,255,20.0,23.0,96,0.04,,---,0.11,VWS V14.01,2013-04-20 07:32:00,
2013-04-20 03:37:00,51.1,50.0,29.76,WNW,283,13.0,23.0,96,0.05,,---,0.12,VWS V14.01,2013-04-20 07:37:00,
2013-04-20 03:42:00,51.0,49.9,29.77,SW,223,11.0,23.0,96,0.05,,---,0.12,VWS V14.01,2013-04-20 07:42:00,
2013-04-20 03:47:00,50.9,49.8,29.77,NW,315,14.0,23.0,96,0.05,,---,0.12,VWS V14.01,2013-04-20 07:47:00,
2013-04-20 03:52:00,50.9,49.8,29.77,SW,226,11.0,23.0,96,0.05,,---,0.12,VWS V14.01,2013-04-20 07:52:00,
2013-04-20 03:57:00,50.8,49.7,29.78,WSW,238,10.0,23.0,96,0.06,,---,0.13,VWS V14.01,2013-04-20 07:57:00,
2013-04-20 04:02:00,50.8,50.0,29.78,WNW,291,15.0,18.0,97,0.03,,---,0.13,VWS V14.01,2013-04-20 08:02:00,
2013-04-20 04:07:00,50.6,49.5,29.78,West,269,14.0,21.0,96,0.04,,---,0.14,VWS V14.01,2013-04-20 08:07:00,
2013-04-20 04:12:00,50.7,49.9,29.79,WNW,285,13.0,21.0,97,0.04,,---,0.14,VWS V14.01,2013-04-20 08:12:00,
2013-04-20 04:17:00,50.4,49.3,29.80,WSW,252,14.0,22.0,96,0.05,,---,0.15,VWS V14.01,2013-04-20 08:17:00,
2013-04-20 04:22:00,50.1,48.7,29.80,West,274,7.0,22.0,95,0.05,,---,0.15,VWS V14.01,2013-04-20 08:22:00,
2013-04-20 04:27:00,49.8,48.2,29.81,West,261,11.0,22.0,94,0.06,,---,0.16,VWS V14.01,2013-04-20 08:27:00,
2013-04-20 04:32:00,49.7,48.0,29.82,WNW,291,13.0,18.0,94,0.05,,---,0.16,VWS V14.01,2013-04-20 08:32:00,
2013-04-20 04:37:00,49.6,47.7,29.82,WNW,295,9.0,22.0,93,0.06,,---,0.17,VWS V14.01,2013-04-20 08:37:00,
2013-04-20 04:42:00,49.4,47.8,29.83,WNW,287,10.0,22.0,94,0.06,,---,0.17,VWS V14.01,2013-04-20 08:42:00,
2013-04-20 04:47:00,49.4,47.8,29.84,SW,224,20.0,22.0,94,0.07,,---,0.18,VWS V14.01,2013-04-20 08:47:00,
2013-04-20 04:52:00,49.3,47.7,29.84,NW,311,16.0,22.0,94,0.08,,---,0.19,VWS V14.01,2013-04-20 08:52:00,
2013-04-20 04:57:00,49.1,47.2,29.84,WNW,302,16.0,22.0,93,0.09,,---,0.20,VWS V14.01,2013-04-20 08:57:00,
2013-04-20 05:02:00,48.8,46.9,29.85,WNW,300,12.0,19.0,93,0.08,,---,0.21,VWS V14.01,2013-04-20 09:02:00,
2013-04-20 05:07:00,48.5,46.3,29.85,West,271,16.0,22.0,92,0.09,,---,0.22,VWS V14.01,2013-04-20 09:07:00,
2013-04-20 05:12:00,48.3,45.8,29.85,North,6,15.0,22.0,91,0.09,,---,0.22,VWS V14.01,2013-04-20 09:12:00,
2013-04-20 05:17:00,48.2,45.7,29.86,West,281,20.0,25.0,91,0.09,,---,0.22,VWS V14.01,2013-04-20 09:17:00,
2013-04-20 05:22:00,48.0,45.5,29.85,West,268,11.0,26.0,91,0.11,,---,0.24,VWS V14.01,2013-04-20 09:22:00,
2013-04-20 05:27:00,47.5,45.0,29.85,NW,304,11.0,26.0,91,0.11,,---,0.24,VWS V14.01,2013-04-20 09:27:00,
2013-04-20 05:32:00,47.2,44.7,29.85,NNE,18,10.0,14.0,91,0.09,,---,0.25,VWS V14.01,2013-04-20 09:32:00,
2013-04-20 05:37:00,47.1,44.9,29.84,WNW,297,7.0,14.0,92,0.09,,---,0.25,VWS V14.01,2013-04-20 09:37:00,
2013-04-20 05:42:00,47.2,44.7,29.86,West,266,11.0,18.0,91,0.10,,---,0.26,VWS V14.01,2013-04-20 09:42:00,
2013-04-20 05:47:00,47.2,44.7,29.86,West,264,13.0,18.0,91,0.10,,---,0.26,VWS V14.01,2013-04-20 09:47:00,
2013-04-20 05:52:00,47.1,44.3,29.87,West,272,7.0,18.0,90,0.10,,---,0.26,VWS V14.01,2013-04-20 09:52:00,
2013-04-20 05:57:00,47.2,44.4,29.88,WNW,300,10.0,18.0,90,0.10,,---,0.26,VWS V14.01,2013-04-20 09:57:00,
2013-04-20 06:02:00,47.1,44.6,29.88,WSW,240,6.0,14.0,91,0.06,,---,0.27,VWS V14.01,2013-04-20 10:02:00,
2013-04-20 06:07:00,47.2,44.7,29.88,WNW,303,6.0,14.0,91,0.06,,---,0.27,VWS V14.01,2013-04-20 10:07:00,
2013-04-20 06:13:00,47.2,44.7,29.89,West,278,10.0,14.0,91,0.07,,---,0.28,VWS V14.01,2013-04-20 10:13:00,
2013-04-20 06:18:00,47.3,45.1,29.89,WSW,239,10.0,14.0,92,0.07,,---,0.29,VWS V14.01,2013-04-20 10:18:00,
2013-04-20 06:23:00,47.4,45.2,29.89,West,281,7.0,14.0,92,0.08,,---,0.29,VWS V14.01,2013-04-20 10:23:00,
2013-04-20 06:28:00,47.4,45.2,29.89,West,265,4.0,14.0,92,0.08,,---,0.29,VWS V14.01,2013-04-20 10:28:00,
2013-04-20 06:33:00,47.3,45.1,29.89,West,280,6.0,11.0,92,0.04,,---,0.29,VWS V14.01,2013-04-20 10:33:00,
2013-04-20 06:38:00,47.4,45.2,29.89,West,281,11.0,11.0,92,0.04,,---,0.29,VWS V14.01,2013-04-20 10:38:00,
2013-04-20 06:43:00,47.5,45.3,29.88,NW,318,5.0,12.0,92,0.04,,---,0.29,VWS V14.01,2013-04-20 10:43:00,
2013-04-20 06:48:00,47.6,45.1,29.88,WNW,292,12.0,14.0,91,0.04,,---,0.29,VWS V14.01,2013-04-20 10:48:00,
2013-04-20 06:53:00,47.7,45.2,29.89,NW,321,5.0,14.0,91,0.04,,---,0.29,VWS V14.01,2013-04-20 10:53:00,
2013-04-20 06:57:00,47.9,45.7,29.90,WNW,302,10.0,14.0,92,0.04,,---,0.29,VWS V14.01,2013-04-20 10:57:00,
2013-04-20 07:03:00,48.0,45.2,29.90,North,356,6.0,11.0,90,0.02,,---,0.29,VWS V14.01,2013-04-20 11:03:00,
2013-04-20 07:08:00,48.2,45.4,29.90,WNW,296,7.0,13.0,90,0.02,,---,0.29,VWS V14.01,2013-04-20 11:08:00,
2013-04-20 07:13:00,48.3,45.5,29.90,NW,311,6.0,13.0,90,0.02,,---,0.29,VWS V14.01,2013-04-20 11:13:00,
2013-04-20 07:18:00,48.4,45.3,29.90,WNW,283,11.0,15.0,89,0.02,,---,0.29,VWS V14.01,2013-04-20 11:18:00,
2013-04-20 07:23:00,48.5,45.4,29.91,WNW,300,5.0,15.0,89,0.02,,---,0.29,VWS V14.01,2013-04-20 11:23:00,
2013-04-20 07:28:00,48.6,45.5,29.91,West,269,6.0,15.0,89,0.02,,---,0.29,VWS V14.01,2013-04-20 11:28:00,
2013-04-20 07:33:00,48.6,45.5,29.91,West,269,8.0,13.0,89,0.00,,---,0.29,VWS V14.01,2013-04-20 11:33:00,
2013-04-20 07:38:00,48.6,45.5,29.92,West,262,6.0,13.0,89,0.00,,---,0.29,VWS V14.01,2013-04-20 11:38:00,
2013-04-20 07:43:00,48.7,45.6,29.92,SSW,200,6.0,13.0,89,0.00,,---,0.29,VWS V14.01,2013-04-20 11:43:00,
2013-04-20 07:48:00,48.7,45.6,29.92,West,264,7.0,13.0,89,0.00,,---,0.29,VWS V14.01,2013-04-20 11:48:00,
2013-04-20 07:53:00,48.8,45.7,29.92,WNW,285,4.0,13.0,89,0.00,,---,0.29,VWS V14.01,2013-04-20 11:53:00,
2013-04-20 07:58:00,48.8,45.4,29.92,West,274,10.0,13.0,88,0.00,,---,0.29,VWS V14.01,2013-04-20 11:58:00,
2013-04-20 08:02:00,48.8,45.4,29.93,West,272,7.0,11.0,88,0.00,,---,0.29,VWS V14.01,2013-04-20 12:02:00,
2013-04-20 08:07:00,48.9,44.9,29.93,WNW,288,6.0,14.0,86,0.00,,---,0.29,VWS V14.01,2013-04-20 12:07:00,
2013-04-20 08:12:00,49.1,45.4,29.93,West,259,9.0,14.0,87,0.00,,---,0.29,VWS V14.01,2013-04-20 12:12:00,
2013-04-20 08:17:00,49.2,45.2,29.93,West,271,6.0,14.0,86,0.00,,---,0.29,VWS V14.01,2013-04-20 12:17:00,
2013-04-20 08:22:00,49.4,45.4,29.93,WSW,251,3.0,14.0,86,0.00,,---,0.29,VWS V14.01,2013-04-20 12:22:00,
2013-04-20 08:27:00,49.5,45.2,29.93,NNW,329,6.0,14.0,85,0.00,,---,0.29,VWS V14.01,2013-04-20 12:27:00,
2013-04-20 08:33:00,49.6,45.6,29.94,WNW,287,6.0,12.0,86,0.00,,---,0.29,VWS V14.01,2013-04-20 12:33:00,
2013-04-20 08:38:00,49.8,46.1,29.94,West,277,6.0,12.0,87,0.00,,---,0.29,VWS V14.01,2013-04-20 12:38:00,
2013-04-20 08:43:00,49.9,45.6,29.95,SSW,202,9.0,13.0,85,0.00,,---,0.29,VWS V14.01,2013-04-20 12:43:00,
2013-04-20 08:48:00,50.1,45.8,29.95,WNW,289,4.0,13.0,85,0.00,,---,0.29,VWS V14.01,2013-04-20 12:48:00,
2013-04-20 08:53:00,50.2,45.9,29.95,SW,215,4.0,13.0,85,0.00,,---,0.29,VWS V14.01,2013-04-20 12:53:00,
2013-04-20 08:58:00,50.4,46.1,29.95,WSW,249,12.0,13.0,85,0.00,,---,0.29,VWS V14.01,2013-04-20 12:58:00,
2013-04-20 09:03:00,50.5,45.5,29.95,West,267,6.0,12.0,83,0.00,,---,0.29,VWS V14.01,2013-04-20 13:03:00,
2013-04-20 09:08:00,50.7,44.8,29.95,West,275,13.0,13.0,80,0.00,,---,0.29,VWS V14.01,2013-04-20 13:08:00,
2013-04-20 09:13:00,50.8,44.5,29.96,West,261,12.0,14.0,79,0.00,,---,0.29,VWS V14.01,2013-04-20 13:13:00,
2013-04-20 09:18:00,51.1,44.8,29.96,SW,224,6.0,14.0,79,0.00,,---,0.29,VWS V14.01,2013-04-20 13:18:00,
2013-04-20 09:23:00,51.6,46.0,29.96,West,270,4.0,14.0,81,0.00,,---,0.29,VWS V14.01,2013-04-20 13:23:00,
2013-04-20 09:28:00,51.6,45.3,29.96,WSW,238,8.0,14.0,79,0.00,,---,0.29,VWS V14.01,2013-04-20 13:28:00,
2013-04-20 09:33:00,51.4,44.1,29.96,West,262,12.0,17.0,76,0.00,,---,0.29,VWS V14.01,2013-04-20 13:33:00,
2013-04-20 09:38:00,51.5,41.7,29.97,WSW,238,17.0,25.0,69,0.00,,---,0.29,VWS V14.01,2013-04-20 13:38:00,
2013-04-20 09:43:00,51.6,40.6,29.97,WSW,251,24.0,25.0,66,0.00,,---,0.29,VWS V14.01,2013-04-20 13:43:00,
2013-04-20 09:48:00,51.7,40.3,29.98,WSW,252,17.0,25.0,65,0.00,,---,0.29,VWS V14.01,2013-04-20 13:48:00,
2013-04-20 09:53:00,52.0,39.8,29.98,WSW,249,8.0,25.0,63,0.00,,---,0.29,VWS V14.01,2013-04-20 13:53:00,
2013-04-20 09:58:00,52.2,39.2,29.99,NW,323,12.0,25.0,61,0.00,,---,0.29,VWS V14.01,2013-04-20 13:58:00,
2013-04-20 10:03:00,52.2,39.2,29.99,West,270,13.0,18.0,61,0.00,,---,0.29,VWS V14.01,2013-04-20 14:03:00,
2013-04-20 10:08:00,52.3,39.7,29.99,West,269,11.0,19.0,62,0.00,,---,0.29,VWS V14.01,2013-04-20 14:08:00,
2013-04-20 10:13:00,52.8,39.7,30.00,West,259,14.0,20.0,61,0.00,,---,0.29,VWS V14.01,2013-04-20 14:13:00,
2013-04-20 10:18:00,52.9,40.2,30.00,West,271,12.0,20.0,62,0.00,,---,0.29,VWS V14.01,2013-04-20 14:18:00,
2013-04-20 10:23:00,53.1,38.7,30.00,West,259,8.0,20.0,58,0.00,,---,0.29,VWS V14.01,2013-04-20 14:23:00,
2013-04-20 10:28:00,53.0,38.2,30.00,West,259,19.0,23.0,57,0.00,,---,0.29,VWS V14.01,2013-04-20 14:28:00,
2013-04-20 10:33:00,52.7,38.8,30.01,NNW,340,10.0,23.0,59,0.00,,---,0.29,VWS V14.01,2013-04-20 14:33:00,
2013-04-20 10:38:00,52.6,37.8,30.01,WSW,255,10.0,23.0,57,0.00,,---,0.29,VWS V14.01,2013-04-20 14:38:00,
2013-04-20 10:43:00,52.7,38.8,30.01,WNW,288,11.0,23.0,59,0.00,,---,0.29,VWS V14.01,2013-04-20 14:43:00,
2013-04-20 10:48:00,53.0,38.6,30.01,WSW,254,13.0,23.0,58,0.00,,---,0.29,VWS V14.01,2013-04-20 14:48:00,
2013-04-20 10:53:00,52.6,36.5,30.01,NW,314,14.0,24.0,54,0.00,,---,0.29,VWS V14.01,2013-04-20 14:53:00,
2013-04-20 10:58:00,52.5,37.7,30.01,South,176,15.0,25.0,57,0.00,,---,0.29,VWS V14.01,2013-04-20 14:58:00,
2013-04-20 11:03:00,52.4,36.7,30.01,WNW,301,9.0,21.0,55,0.00,,---,0.29,VWS V14.01,2013-04-20 15:03:00,
2013-04-20 11:08:00,52.4,36.3,30.02,WNW,290,14.0,24.0,54,0.00,,---,0.29,VWS V14.01,2013-04-20 15:08:00,
2013-04-20 11:13:00,52.3,37.1,30.02,WSW,254,15.0,24.0,56,0.00,,---,0.29,VWS V14.01,2013-04-20 15:13:00,
2013-04-20 11:18:00,52.4,37.2,30.01,WSW,247,17.0,24.0,56,0.00,,---,0.29,VWS V14.01,2013-04-20 15:18:00,
2013-04-20 11:23:00,52.6,36.0,30.02,NW,326,4.0,24.0,53,0.00,,---,0.29,VWS V14.01,2013-04-20 15:23:00,
2013-04-20 11:28:00,52.5,35.9,30.01,West,268,20.0,24.0,53,0.00,,---,0.29,VWS V14.01,2013-04-20 15:28:00,
2013-04-20 11:33:00,52.5,36.8,30.02,SSW,196,11.0,19.0,55,0.00,,---,0.29,VWS V14.01,2013-04-20 15:33:00,
2013-04-20 11:38:00,52.6,35.5,30.02,West,274,15.0,19.0,52,0.00,,---,0.29,VWS V14.01,2013-04-20 15:38:00,
2013-04-20 11:43:00,52.8,35.2,30.02,West,271,14.0,19.0,51,0.00,,---,0.29,VWS V14.01,2013-04-20 15:43:00,
2013-04-20 11:48:00,53.0,34.9,30.02,WNW,292,13.0,19.0,50,0.00,,---,0.29,VWS V14.01,2013-04-20 15:48:00,
2013-04-20 11:53:00,52.9,35.8,30.02,West,281,7.0,19.0,52,0.00,,---,0.29,VWS V14.01,2013-04-20 15:53:00,
2013-04-20 11:58:00,53.3,35.7,30.01,WSW,250,12.0,19.0,51,0.00,,---,0.29,VWS V14.01,2013-04-20 15:58:00,
2013-04-20 12:03:00,53.2,35.6,30.01,West,266,14.0,17.0,51,0.00,,---,0.29,VWS V14.01,2013-04-20 16:03:00,
2013-04-20 12:08:00,53.1,36.0,30.01,NNW,328,6.0,20.0,52,0.00,,---,0.29,VWS V14.01,2013-04-20 16:08:00,
2013-04-20 12:13:00,53.1,35.5,30.01,WNW,297,10.0,20.0,51,0.00,,---,0.29,VWS V14.01,2013-04-20 16:13:00,
2013-04-20 12:18:00,53.3,34.7,30.01,West,270,11.0,20.0,49,0.00,,---,0.29,VWS V14.01,2013-04-20 16:18:00,
2013-04-20 12:23:00,53.1,33.4,30.01,West,261,14.0,20.0,47,0.00,,---,0.29,VWS V14.01,2013-04-20 16:23:00,
2013-04-20 12:28:00,53.0,33.8,30.01,WSW,253,19.0,20.0,48,0.00,,---,0.29,VWS V14.01,2013-04-20 16:28:00,
2013-04-20 12:33:00,52.7,33.6,30.01,North,356,9.0,17.0,48,0.00,,---,0.29,VWS V14.01,2013-04-20 16:33:00,
2013-04-20 12:38:00,53.1,35.0,30.01,West,265,9.0,21.0,50,0.00,,---,0.29,VWS V14.01,2013-04-20 16:38:00,
2013-04-20 12:43:00,53.0,33.3,30.01,West,267,12.0,24.0,47,0.00,,---,0.29,VWS V14.01,2013-04-20 16:43:00,
2013-04-20 12:48:00,53.0,33.3,30.01,WSW,251,14.0,24.0,47,0.00,,---,0.29,VWS V14.01,2013-04-20 16:48:00,
2013-04-20 12:53:00,52.9,33.8,30.01,SW,233,11.0,24.0,48,0.00,,---,0.29,VWS V14.01,2013-04-20 16:53:00,
2013-04-20 12:58:00,52.8,32.6,30.01,NW,304,12.0,24.0,46,0.00,,---,0.29,VWS V14.01,2013-04-20 16:58:00,
2013-04-20 13:03:00,52.8,34.7,30.01,WNW,297,19.0,21.0,50,0.00,,---,0.29,VWS V14.01,2013-04-20 17:03:00,
2013-04-20 13:08:00,52.5,33.4,30.02,West,260,10.0,23.0,48,0.00,,---,0.29,VWS V14.01,2013-04-20 17:08:00,
2013-04-20 13:13:00,52.5,33.4,30.02,NNW,343,13.0,23.0,48,0.00,,---,0.29,VWS V14.01,2013-04-20 17:13:00,
2013-04-20 13:18:00,52.9,34.8,30.02,West,281,15.0,23.0,50,0.00,,---,0.29,VWS V14.01,2013-04-20 17:18:00,
2013-04-20 13:23:00,53.3,33.6,30.02,North,350,9.0,25.0,47,0.00,,---,0.29,VWS V14.01,2013-04-20 17:23:00,
2013-04-20 13:28:00,53.6,32.8,30.02,West,274,21.0,25.0,45,0.00,,---,0.29,VWS V14.01,2013-04-20 17:28:00,
2013-04-20 13:33:00,53.7,31.8,30.02,WSW,243,11.0,19.0,43,0.00,,---,0.29,VWS V14.01,2013-04-20 17:33:00,
2013-04-20 13:38:00,53.7,32.9,30.02,WSW,251,13.0,21.0,45,0.00,,---,0.29,VWS V14.01,2013-04-20 17:38:00,
2013-04-20 13:43:00,53.9,32.5,30.02,West,272,13.0,21.0,44,0.00,,---,0.29,VWS V14.01,2013-04-20 17:43:00,
2013-04-20 13:48:00,53.8,32.4,30.02,WNW,287,11.0,21.0,44,0.00,,---,0.29,VWS V14.01,2013-04-20 17:48:00,
2013-04-20 13:53:00,53.6,32.8,30.02,WSW,255,21.0,21.0,45,0.00,,---,0.29,VWS V14.01,2013-04-20 17:53:00,
2013-04-20 13:59:00,53.7,32.9,30.02,WSW,238,15.0,22.0,45,0.00,,---,0.29,VWS V14.01,2013-04-20 17:59:00,
2013-04-20 14:04:00,53.6,33.3,30.02,West,262,7.0,19.0,46,0.00,,---,0.29,VWS V14.01,2013-04-20 18:04:00,
2013-04-20 14:09:00,53.8,34.6,30.02,East,96,16.0,20.0,48,0.00,,---,0.29,VWS V14.01,2013-04-20 18:09:00,
2013-04-20 14:14:00,53.6,33.3,30.02,NW,326,13.0,26.0,46,0.00,,---,0.29,VWS V14.01,2013-04-20 18:14:00,
2013-04-20 14:19:00,53.9,34.2,30.02,WNW,288,17.0,26.0,47,0.00,,---,0.29,VWS V14.01,2013-04-20 18:19:00,
2013-04-20 14:24:00,53.9,33.6,30.02,WSW,256,11.0,26.0,46,0.00,,---,0.29,VWS V14.01,2013-04-20 18:24:00,
2013-04-20 14:29:00,53.9,32.5,30.02,West,276,10.0,26.0,44,0.00,,---,0.29,VWS V14.01,2013-04-20 18:29:00,
2013-04-20 14:34:00,54.4,34.6,30.03,WSW,245,11.0,15.0,47,0.00,,---,0.29,VWS V14.01,2013-04-20 18:34:00,
2013-04-20 14:39:00,54.3,32.9,30.02,WNW,283,12.0,21.0,44,0.00,,---,0.29,VWS V14.01,2013-04-20 18:39:00,
2013-04-20 14:44:00,53.9,33.6,30.03,West,259,10.0,22.0,46,0.00,,---,0.29,VWS V14.01,2013-04-20 18:44:00,
2013-04-20 14:49:00,54.2,34.4,30.03,West,262,5.0,22.0,47,0.00,,---,0.29,VWS V14.01,2013-04-20 18:49:00,
2013-04-20 14:54:00,54.1,33.2,30.02,WNW,292,11.0,22.0,45,0.00,,---,0.29,VWS V14.01,2013-04-20 18:54:00,
2013-04-20 14:59:00,54.0,33.7,30.02,West,281,6.0,22.0,46,0.00,,---,0.29,VWS V14.01,2013-04-20 18:59:00,
2013-04-20 15:04:00,54.8,34.4,30.02,SW,234,17.0,18.0,46,0.00,,---,0.29,VWS V14.01,2013-04-20 19:04:00,
2013-04-20 15:09:00,54.8,34.4,30.02,NW,316,8.0,18.0,46,0.00,,---,0.29,VWS V14.01,2013-04-20 19:09:00,
2013-04-20 15:14:00,54.9,32.8,30.02,West,270,18.0,22.0,43,0.00,,---,0.29,VWS V14.01,2013-04-20 19:14:00,
2013-04-20 15:19:00,55.4,33.9,30.03,WSW,249,10.0,22.0,44,0.00,,---,0.29,VWS V14.01,2013-04-20 19:19:00,
2013-04-20 15:24:00,55.8,33.1,30.03,West,274,13.0,22.0,42,0.00,,---,0.29,VWS V14.01,2013-04-20 19:24:00,
2013-04-20 15:29:00,56.2,32.8,30.03,WSW,248,14.0,22.0,41,0.00,,---,0.29,VWS V14.01,2013-04-20 19:29:00,
2013-04-20 15:34:00,55.9,33.2,30.03,WNW,287,13.0,19.0,42,0.00,,---,0.29,VWS V14.01,2013-04-20 19:34:00,
2013-04-20 15:39:00,55.9,32.6,30.03,WNW,300,14.0,22.0,41,0.00,,---,0.29,VWS V14.01,2013-04-20 19:39:00,
2013-04-20 15:44:00,56.3,32.9,30.03,West,273,18.0,22.0,41,0.00,,---,0.29,VWS V14.01,2013-04-20 19:44:00,
2013-04-20 15:49:00,56.6,33.8,30.03,WSW,248,7.0,22.0,42,0.00,,---,0.29,VWS V14.01,2013-04-20 19:49:00,
2013-04-20 15:54:00,57.0,33.5,30.03,North,360,6.0,22.0,41,0.00,,---,0.29,VWS V14.01,2013-04-20 19:54:00,
2013-04-20 15:59:00,57.2,33.7,30.03,WSW,256,13.0,22.0,41,0.00,,---,0.29,VWS V14.01,2013-04-20 19:59:00,
2013-04-20 16:04:00,56.6,32.6,30.03,West,267,10.0,22.0,40,0.00,,---,0.29,VWS V14.01,2013-04-20 20:04:00,
2013-04-20 16:09:00,56.6,32.0,30.03,WSW,248,12.0,22.0,39,0.00,,---,0.29,VWS V14.01,2013-04-20 20:09:00,
2013-04-20 16:14:00,57.1,34.2,30.03,WSW,237,22.0,22.0,42,0.00,,---,0.29,VWS V14.01,2013-04-20 20:14:00,
2013-04-20 16:18:00,56.9,32.8,30.04,West,264,10.0,22.0,40,0.00,,---,0.29,VWS V14.01,2013-04-20 20:18:00,
2013-04-20 16:24:00,56.9,34.1,30.04,NW,326,13.0,22.0,42,0.00,,---,0.29,VWS V14.01,2013-04-20 20:24:00,
2013-04-20 16:29:00,56.7,32.7,30.04,SE,142,12.0,22.0,40,0.00,,---,0.29,VWS V14.01,2013-04-20 20:29:00,
2013-04-20 16:34:00,56.8,34.0,30.05,WSW,257,11.0,15.0,42,0.00,,---,0.29,VWS V14.01,2013-04-20 20:34:00,
2013-04-20 16:39:00,57.0,33.5,30.05,West,274,12.0,15.0,41,0.00,,---,0.29,VWS V14.01,2013-04-20 20:39:00,
2013-04-20 16:43:00,57.0,32.9,30.05,NW,313,9.0,18.0,40,0.00,,---,0.29,VWS V14.01,2013-04-20 20:43:00,
2013-04-20 16:48:00,57.1,33.0,30.05,West,269,7.0,18.0,40,0.00,,---,0.29,VWS V14.01,2013-04-20 20:48:00,
2013-04-20 16:53:00,57.1,32.4,30.05,SW,235,13.0,18.0,39,0.00,,---,0.29,VWS V14.01,2013-04-20 20:53:00,
2013-04-20 16:58:00,57.4,32.7,30.05,West,278,7.0,18.0,39,0.00,,---,0.29,VWS V14.01,2013-04-20 20:58:00,
2013-04-20 17:03:00,57.3,31.9,30.06,WSW,254,15.0,18.0,38,0.00,,---,0.29,VWS V14.01,2013-04-20 21:03:00,
2013-04-20 17:08:00,57.1,31.8,30.06,WSW,251,11.0,18.0,38,0.00,,---,0.29,VWS V14.01,2013-04-20 21:08:00,
2013-04-20 17:13:00,57.2,31.8,30.06,WNW,297,13.0,20.0,38,0.00,,---,0.29,VWS V14.01,2013-04-20 21:13:00,
2013-04-20 17:19:00,57.2,33.1,30.06,WNW,282,7.0,21.0,40,0.00,,---,0.29,VWS V14.01,2013-04-20 21:19:00,
2013-04-20 17:24:00,57.2,33.7,30.06,West,264,9.0,21.0,41,0.00,,---,0.29,VWS V14.01,2013-04-20 21:24:00,
2013-04-20 17:29:00,57.3,33.2,30.06,WSW,243,12.0,21.0,40,0.00,,---,0.29,VWS V14.01,2013-04-20 21:29:00,
2013-04-20 17:34:00,57.2,32.5,30.07,WSW,257,17.0,23.0,39,0.00,,---,0.29,VWS V14.01,2013-04-20 21:34:00,
2013-04-20 17:39:00,57.2,33.1,30.07,WSW,256,14.0,23.0,40,0.00,,---,0.29,VWS V14.01,2013-04-20 21:39:00,
2013-04-20 17:44:00,57.2,33.1,30.07,SW,216,8.0,23.0,40,0.00,,---,0.29,VWS V14.01,2013-04-20 21:44:00,
2013-04-20 17:49:00,57.3,33.2,30.07,West,268,12.0,23.0,40,0.00,,---,0.29,VWS V14.01,2013-04-20 21:49:00,
2013-04-20 17:54:00,57.1,32.4,30.07,West,261,17.0,23.0,39,0.00,,---,0.29,VWS V14.01,2013-04-20 21:54:00,
2013-04-20 17:59:00,57.0,32.3,30.07,West,267,9.0,23.0,39,0.00,,---,0.29,VWS V14.01,2013-04-20 21:59:00,
2013-04-20 18:04:00,57.1,33.0,30.08,West,264,9.0,18.0,40,0.00,,---,0.29,VWS V14.01,2013-04-20 22:04:00,
2013-04-20 18:09:00,57.6,34.7,30.08,WSW,257,11.0,18.0,42,0.00,,---,0.29,VWS V14.01,2013-04-20 22:09:00,
2013-04-20 18:14:00,57.7,31.6,30.08,SSW,206,16.0,20.0,37,0.00,,---,0.29,VWS V14.01,2013-04-20 22:14:00,
2013-04-20 18:19:00,57.7,32.9,30.09,WSW,254,17.0,22.0,39,0.00,,---,0.29,VWS V14.01,2013-04-20 22:19:00,
2013-04-20 18:24:00,57.6,31.5,30.09,West,272,8.0,22.0,37,0.00,,---,0.29,VWS V14.01,2013-04-20 22:24:00,
2013-04-20 18:29:00,57.6,30.9,30.09,NW,323,14.0,22.0,36,0.00,,---,0.29,VWS V14.01,2013-04-20 22:29:00,
2013-04-20 18:34:00,57.4,30.7,30.09,West,270,11.0,23.0,36,0.00,,---,0.29,VWS V14.01,2013-04-20 22:34:00,
2013-04-20 18:39:00,57.4,30.7,30.09,West,264,18.0,23.0,36,0.00,,---,0.29,VWS V14.01,2013-04-20 22:39:00,
2013-04-20 18:44:00,57.4,31.4,30.10,WNW,290,12.0,23.0,37,0.00,,---,0.29,VWS V14.01,2013-04-20 22:44:00,
2013-04-20 18:49:00,57.2,31.2,30.10,WNW,287,15.0,24.0,37,0.00,,---,0.29,VWS V14.01,2013-04-20 22:49:00,
2013-04-20 18:54:00,57.0,32.9,30.10,West,274,6.0,24.0,40,0.00,,---,0.29,VWS V14.01,2013-04-20 22:54:00,
2013-04-20 18:58:00,56.8,31.5,30.10,WNW,297,15.0,24.0,38,0.00,,---,0.29,VWS V14.01,2013-04-20 22:58:00,
2013-04-20 19:03:00,57.0,31.7,30.11,West,279,14.0,19.0,38,0.00,,---,0.29,VWS V14.01,2013-04-20 23:03:00,
2013-04-20 19:08:00,56.8,32.1,30.11,WNW,285,13.0,20.0,39,0.00,,---,0.29,VWS V14.01,2013-04-20 23:08:00,
2013-04-20 19:13:00,56.7,32.7,30.11,WNW,297,12.0,21.0,40,0.00,,---,0.29,VWS V14.01,2013-04-20 23:13:00,
2013-04-20 19:18:00,56.5,31.9,30.12,West,274,14.0,21.0,39,0.00,,---,0.29,VWS V14.01,2013-04-20 23:18:00,
2013-04-20 19:24:00,56.4,31.1,30.12,West,276,17.0,21.0,38,0.00,,---,0.29,VWS V14.01,2013-04-20 23:24:00,
2013-04-20 19:29:00,56.2,31.0,30.12,WNW,290,12.0,21.0,38,0.00,,---,0.29,VWS V14.01,2013-04-20 23:29:00,
2013-04-20 19:34:00,56.0,32.0,30.12,West,266,20.0,20.0,40,0.00,,---,0.29,VWS V14.01,2013-04-20 23:34:00,
2013-04-20 19:39:00,55.8,31.9,30.13,WNW,293,17.0,22.0,40,0.00,,---,0.29,VWS V14.01,2013-04-20 23:39:00,
2013-04-20 19:44:00,55.5,31.6,30.13,WSW,250,17.0,22.0,40,0.00,,---,0.29,VWS V14.01,2013-04-20 23:44:00,
2013-04-20 19:49:00,55.3,32.0,30.14,WSW,256,9.0,22.0,41,0.00,,---,0.29,VWS V14.01,2013-04-20 23:49:00,
2013-04-20 19:54:00,55.3,32.6,30.14,West,280,20.0,22.0,42,0.00,,---,0.29,VWS V14.01,2013-04-20 23:54:00,
2013-04-20 19:59:00,55.0,31.8,30.14,WNW,288,16.0,22.0,41,0.00,,---,0.29,VWS V14.01,2013-04-20 23:59:00,
2013-04-20 20:04:00,54.8,31.6,30.15,WNW,299,12.0,16.0,41,0.00,,---,0.29,VWS V14.01,2013-04-21 00:04:00,
2013-04-20 20:09:00,54.6,32.0,30.15,WSW,258,13.0,17.0,42,0.00,,---,0.29,VWS V14.01,2013-04-21 00:09:00,
2013-04-20 20:14:00,54.5,31.9,30.16,West,259,5.0,20.0,42,0.00,,---,0.29,VWS V14.01,2013-04-21 00:14:00,
2013-04-20 20:19:00,54.2,33.3,30.16,WSW,258,9.0,20.0,45,0.00,,---,0.29,VWS V14.01,2013-04-21 00:19:00,
2013-04-20 20:30:00,53.9,32.5,30.17,West,276,11.0,15.0,44,0.00,,---,0.29,VWS V14.01,2013-04-21 00:30:00,
2013-04-20 20:48:00,53.3,33.1,30.19,WNW,286,6.0,14.0,46,0.00,,---,0.29,VWS V14.01,2013-04-21 00:48:00,
2013-04-20 20:53:00,53.0,33.8,30.20,SW,232,10.0,14.0,48,0.00,,---,0.29,VWS V14.01,2013-04-21 00:53:00,
2013-04-20 20:58:00,52.8,33.2,30.20,West,281,5.0,14.0,47,0.00,,---,0.29,VWS V14.01,2013-04-21 00:58:00,
2013-04-20 21:03:00,52.8,33.2,30.20,West,269,8.0,13.0,47,0.00,,---,0.29,VWS V14.01,2013-04-21 01:03:00,
2013-04-20 21:13:00,52.4,33.3,30.20,West,276,10.0,10.0,48,0.00,,---,0.29,VWS V14.01,2013-04-21 01:13:00,
2013-04-20 21:30:00,52.2,33.6,30.22,West,264,8.0,13.0,49,0.00,,---,0.29,VWS V14.01,2013-04-21 01:30:00,
2013-04-20 22:00:00,52.3,32.2,30.24,WNW,302,9.0,16.0,46,0.00,,---,0.29,VWS V14.01,2013-04-21 02:00:00,
2013-04-20 22:30:00,51.3,30.1,30.26,WNW,283,5.0,14.0,44,0.00,,---,0.29,VWS V14.01,2013-04-21 02:30:00,
2013-04-20 23:00:00,50.6,29.0,30.26,NNW,348,11.0,15.0,43,0.00,,---,0.29,VWS V14.01,2013-04-21 03:00:00,
2013-04-20 23:30:00,49.7,29.8,30.27,WNW,283,7.0,18.0,46,0.00,,---,0.29,VWS V14.01,2013-04-21 03:30:00,